Ahmad Hardiyanto

Chefscout - Persib
3 Apr 2027
Samstag
Verarbeitung

Persönlichkeit

Anpassungsfähigkeit (13) Ehrgeiz (3) Kontroverse (2) Loyalität (14) Druck (1) Professionalität (14) Fairness (17) Temperament (17)

Profil

Trainerstil Demokratisch
Lizenz Nationale B
Entschlossenheit 9
Menschenführung 8
Motivation 9
Disziplin 4
Arbeitszufriedenheit
70%
Ermüdung
0%
Rolle Chefscout
Gehalt 14.8K p/W
Vertrag 14.03.2030

Leistung

Verhalten Gut
Trainingseffektivität
25%
Spielerentwicklung
20%
Verletzungsprävention
45%
Taktische Umsetzung
35%

Letzte Ereignisse

Nahm an einer Scouting-Besprechung teil jetzt
Spieler begutachtet jetzt
Nahm an einer Scouting-Besprechung teil 7T her
Spieler begutachtet 7T her
Spieler begutachtet 7T her
Spieler begutachtet 7T her
Spieler begutachtet 7T her
Spieler begutachtet 7T her

Aktuell beobachtet

143
Spieler Verein Status Fähigkeit Vertrauen Beobachtet Zuletzt beobachtet Letzte Stimme
Gilson Benchimol Akron Aktiv 133 / 103 40% 2 01.04.2027 -
Amar Rahmanović Krylya Sovetov Aktiv 126 / 98 40% 3 01.04.2027 -
Gedeon Guzina Orenburg Aktiv 97 / 112 40% 2 31.03.2027 -
Migran Ageyan Ufa Aktiv 116 / 86 40% 4 31.03.2027 -
Eduardo Fernandes Benfica Aktiv 115 / 102 40% 1 31.03.2027 -
Robbie McKenzie Gillingham Aktiv 103 / 86 40% 1 31.03.2027 -
Mateo Fernández Angusht Aktiv 96 / 79 40% 3 28.03.2027 -
Jesús Molina Chelyabinsk Aktiv 72 / 86 40% 3 28.03.2027 -
Amur Kalmykov Spartak Kostroma Aktiv 115 / 89 40% 9 27.03.2027 -
Midana Cassamá Portimonense Aktiv 100 / 94 40% 1 27.03.2027 -
Ramazan Gadjimuradov Chelyabinsk Aktiv 95 / 120 40% 1 27.03.2027 -
Oleg Nikiforenko Spartak Kostroma Aktiv 100 / 104 40% 1 27.03.2027 -
Martin Sekulić Ural Aktiv 96 / 104 40% 6 24.03.2027 -
Luca Connell Barnsley Aktiv 102 / 104 40% 2 24.03.2027 -
Gevork Sarkisyan Saturn Aktiv 89 / 68 40% 1 24.03.2027 -
Fedde de Jong De Graafschap Aktiv 125 / 113 40% 1 24.03.2027 -
Mohamed Mallahi Pro Vercelli Aktiv 104 / 90 40% 1 22.03.2027 -
Andreas Weimann Cheltenham Town Aktiv 112 / 120 40% 1 22.03.2027 -
Christian Donadio Novara Aktiv 101 / 89 40% 1 22.03.2027 -
Paul Glatzel Swindon Town Aktiv 82 / 81 40% 4 19.03.2027 -
Jordan Roberts Stevenage Aktiv 122 / 95 40% 3 19.03.2027 -
Corey O'Keeffe Barnsley Aktiv 103 / 99 40% 2 19.03.2027 -
Marcos Cuenca Zaragoza Aktiv 121 / 111 40% 1 19.03.2027 -
Kamran Aliev SKA Khabarovsk Aktiv 119 / 96 40% 2 18.03.2027 -
Ilja Safronov Rotor Aktiv 98 / 118 40% 5 18.03.2027 -
Sam Nombe Milton Keynes Dons Aktiv 99 / 92 40% 5 16.03.2027 -
Shawn McCoulsky Harrogate Town Aktiv 64 / 93 40% 2 16.03.2027 -
Pavel Kireenko Dinamo St Petersburg Aktiv 100 / 99 40% 1 16.03.2027 -
Alexandr Yushin Torpedo Moscow Aktiv 99 / 121 40% 8 14.03.2027 -
Rifat Zhemaletdinov Ural Aktiv 106 / 110 40% 1 14.03.2027 -
Jack Lankester Crewe Alexandra Aktiv 92 / 94 40% 1 14.03.2027 -
Albek Gongapshev Shinnik Aktiv 97 / 102 40% 1 12.03.2027 -
Aaron Drinan Swindon Town Aktiv 83 / 98 40% 2 11.03.2027 -
Louis Appéré Cambridge United Aktiv 87 / 112 40% 6 11.03.2027 -
Ekain Orobengoa Real Sociedad Aktiv 95 / 111 40% 3 10.03.2027 -
Stanislav Biblyk Chaika Aktiv 95 / 81 40% 1 10.03.2027 -
Yordy Reyna Rodina Aktiv 118 / 107 40% 1 08.03.2027 -
Piotr Samiec-Talar Slask Aktiv 98 / 97 40% 3 07.03.2027 -
Ivan Bendera Epicentr Aktiv 83 / 93 40% 1 07.03.2027 -
Georgy Melkadze Akhmat Grozny Aktiv 113 / 98 40% 1 05.03.2027 -
Simone Ianesi Pianese Aktiv 112 / 109 40% 1 05.03.2027 -
Kamarai Swyer Northampton Town Aktiv 73 / 87 40% 1 04.03.2027 -
Matty Stevens AFC Wimbledon Aktiv 117 / 92 40% 8 03.03.2027 -
Stephen Humphrys Bradford City Aktiv 89 / 100 40% 4 02.03.2027 -
Charlie Whitaker Tranmere Rovers Aktiv 103 / 117 40% 2 02.03.2027 -
Matías Lacava Vizela Aktiv 101 / 102 40% 1 02.03.2027 -
Marcus Browne AFC Wimbledon Aktiv 115 / 107 40% 8 27.02.2027 -
Tom Bradshaw Feirense Aktiv 90 / 104 40% 4 27.02.2027 -
Slobodan Tedić Akron Aktiv 118 / 97 40% 2 25.02.2027 -
Artur Murza Volga Aktiv 90 / 109 40% 1 24.02.2027 -
Andrey Mazurin Yenisey Aktiv 93 / 91 40% 1 24.02.2027 -
Elliott List Northampton Town Aktiv 81 / 79 40% 5 23.02.2027 -
Milan Vidakov Radnicki 1923 Aktiv 101 / 106 40% 1 20.02.2027 -
Daniel Udoh Salford City Aktiv 93 / 109 40% 4 19.02.2027 -
Aleksej Golijanin Sokol Aktiv 109 / 108 40% 2 18.02.2027 -
Maxim Kutovoy Salyut Aktiv 77 / 77 40% 1 18.02.2027 -
Alexandr Dolgov Amkar Aktiv 85 / 97 40% 7 17.02.2027 -
Vladislav Yakovlev Volga Aktiv 72 / 93 40% 1 16.02.2027 -
Alexey Baev Dinamo St Petersburg Aktiv 78 / 65 40% 1 15.02.2027 -
Brandon Hanlan Doncaster Rovers Aktiv 106 / 117 40% 6 13.02.2027 -
Alexandr Saplinov Volga Aktiv 84 / 96 40% 3 10.02.2027 -
Artem Simonyan Rotor Aktiv 81 / 85 40% 1 10.02.2027 -
Naoufal Bannis Vitesse Aktiv 108 / 115 40% 1 10.02.2027 -
Dmitry Tsypchenko Torpedo Moscow Aktiv 109 / 89 40% 2 09.02.2027 -
Miro Dinamo Makhachkala Aktiv 123 / 100 40% 2 06.02.2027 -
David Karaev KAMAZ Aktiv 84 / 92 40% 3 05.02.2027 -
Daniil Konoplev Dinamo Bryansk Aktiv 106 / 91 40% 1 02.02.2027 -
Conor McAleny Harrogate Town Aktiv 104 / 71 40% 1 01.02.2027 -
Daniil Kondrakov KDV Tomsk Aktiv 91 / 74 40% 1 31.01.2027 -
Lucas Soares Santa Clara Aktiv 106 / 120 40% 1 31.01.2027 -
Adil Taoui Lokomotiv Sofia Aktiv 122 / 111 40% 1 31.01.2027 -
Tyrese Shade Burton Albion Aktiv 106 / 101 40% 4 29.01.2027 -
Lewis McCann Fleetwood Town Aktiv 118 / 108 40% 3 26.01.2027 -
Alexandr Lomakin Yenisey Aktiv 117 / 85 40% 1 26.01.2027 -
Denis Rubanov Dinamo Stavropol Aktiv 74 / 91 40% 1 24.01.2027 -
Mésaque Djú Portimonense Aktiv 121 / 117 40% 2 22.01.2027 -
Mason Bennett Harrogate Town Aktiv 102 / 96 40% 3 15.01.2027 -
Mohamed Konaté Akhmat Grozny Aktiv 100 / 104 40% 1 12.01.2027 -
Evgeny Voronin Volga Aktiv 107 / 78 40% 1 10.01.2027 -
Anton Fase PSIM Aktiv 99 / 89 40% 2 09.01.2027 -
Fernand Gouré Westerlo Aktiv 89 / 119 40% 1 09.01.2027 -
José Bica Leixões Aktiv 96 / 93 40% 1 07.01.2027 -
Alexander Jeremejeff Persija Aktiv 124 / 104 40% 4 06.01.2027 -
Slavko Damjanović Persis Aktiv 89 / 92 44% 1 04.01.2027 -
Tom Pearce Chesterfield Aktiv 118 / 90 40% 1 04.01.2027 -
Arshak Koryan SKA Khabarovsk Aktiv 100 / 113 40% 1 04.01.2027 -
Alan Maluku Utara United Aktiv 88 / 104 44% 1 01.01.2027 -
Vladislav Sarveli Nizhniy Novgorod Abgelehnt 107 / 91 40% 3 31.12.2026 Ablehnen
Danila Shilov Dinamo Stavropol Aktiv 92 / 78 40% 1 30.12.2026 -
Mark Helm Fleetwood Town Aktiv 107 / 115 40% 1 30.12.2026 -
Edarlyn Reyes Arsenal Tula Aktiv 115 / 92 40% 2 28.12.2026 -
Temirkan Sundukov Dinamo Makhachkala Aktiv 125 / 105 40% 1 28.12.2026 -
Dean Campbell Northampton Town Aktiv 91 / 104 40% 2 27.12.2026 -
Braian Álvarez Arsenal Tula Aktiv 101 / 87 40% 3 18.12.2026 -
Charlie Webster Burton Albion Aktiv 128 / 119 40% 1 17.12.2026 -
Diego Campos Bali United Aktiv 101 / 116 40% 3 15.12.2026 -
Alexandr Olenev Nart Aktiv 105 / 83 40% 1 10.12.2026 -
Dalberto Arema Abgelehnt 118 / 122 40% 3 09.12.2026 Ablehnen
Jamie Reid Stevenage Aktiv 85 / 116 40% 2 07.12.2026 -
Jay-Roy Grot OB Aktiv 119 / 127 40% 2 06.12.2026 -
Luka Čumić PSM Aktiv 103 / 101 40% 2 04.12.2026 -
Hakeeb Adelakun Doncaster Rovers Aktiv 122 / 103 40% 5 03.12.2026 -
David Barbona Defensa y Justicia Aktiv 111 / 108 40% 4 01.12.2026 -
Alfredo Garcia La Equidad Aktiv 164 / 136 40% 1 01.12.2026 -
Johnly Yfeko Exeter City Aktiv 127 / 128 40% 1 28.11.2026 -
Lucas González Estudiantes Aktiv 127 / 92 40% 2 25.11.2026 -
Valdeci Arema Aktiv 109 / 92 40% 1 24.11.2026 -
Sergio Castel Persik Aktiv 120 / 110 40% 1 23.11.2026 -
Marcos Astina Borneo Aktiv 115 / 101 40% 1 22.11.2026 -
Nermin Haljeta PSIM Aktiv 109 / 92 40% 1 22.11.2026 -
Ousmane Diawara Altach Aktiv 120 / 123 40% 1 19.11.2026 -
Jude Soonsup-Bell Hapoel Acre Aktiv 99 / 100 40% 1 18.11.2026 -
Marco Rossello Probiy Aktiv 72 / 83 40% 1 16.11.2026 -
Jan Hurtado Volos NPS Aktiv 135 / 103 40% 1 15.11.2026 -
Manprit Sarkaria Austria Wien Aktiv 120 / 130 40% 1 11.11.2026 -
Luke Molyneux Doncaster Rovers Aktiv 105 / 130 40% 1 10.11.2026 -
Daniel Harvie Wycombe Wanderers Aktiv 121 / 124 40% 1 09.11.2026 -
Milan Ristovski Bhayangkara Presisi Aktiv 115 / 113 40% 1 05.11.2026 -
Maximiliano Gómez Nacional Aktiv 135 / 130 40% 2 03.11.2026 -
Jort van der Sande Bali United Aktiv 89 / 116 40% 2 01.11.2026 -
Alexandre Ramalingom Persita Aktiv 94 / 110 40% 2 29.10.2026 -
Danilo Santacruz Madura United Aktiv 116 / 109 40% 2 28.10.2026 -
Sávio PSM Aktiv 109 / 103 40% 5 28.10.2026 -
Ivo Costantino Danubio Aktiv 118 / 99 40% 1 23.10.2026 -
Moussa Sidibé Bhayangkara Presisi Aktiv 109 / 90 40% 2 17.10.2026 -
Marcelo Torres Gimnasia La Plata Aktiv 120 / 104 40% 2 16.10.2026 -
Sheriddin Boboev PSM Aktiv 83 / 94 40% 2 15.10.2026 -
Mihailo Perović Persebaya Aktiv 107 / 105 40% 1 15.10.2026 -
Adrián Dalmau PSIM Aktiv 119 / 120 40% 1 14.10.2026 -
Mateus Castro Nagoya Grampus Aktiv 130 / 130 40% 2 13.10.2026 -
Kianz Froese Semen Padang Aktiv 108 / 98 40% 1 09.10.2026 -
Dimitar Mitkov Madura United Aktiv 88 / 109 40% 2 08.10.2026 -
Koldo Obieta Aktiv 93 / 94 40% 4 05.10.2026 -
Dejan Tumbas Persis Aktiv 97 / 85 40% 4 05.10.2026 -
Gustavo França Arema Aktiv 101 / 103 40% 1 02.10.2026 -
Sudi Abdallah Persijap Aktiv 80 / 80 40% 1 30.09.2026 -
Alejandro Valencia La Equidad Aktiv 129 / 117 40% 1 28.09.2026 -
Adrián Martínez Racing Club Aktiv 134 / 119 40% 1 28.09.2026 -
Alex Aktiv 94 / 102 40% 1 25.09.2026 -
Lucas Morelatto Persijap Aktiv 116 / 114 40% 1 23.09.2026 -
Matija Malekinušić Novi Pazar Aktiv 126 / 121 40% 1 09.09.2026 -
Boris Kopitović Bali United Aktiv 105 / 101 40% 1 09.09.2026 -
Ramiro Ruiz Rodríguez Atlético Tucumán Aktiv 96 / 126 40% 1 07.09.2026 -